Location: Alafon
(8.4500°N, 4.2333°E)
Time: 06:41:41
(UTC+00:00)

Vanguard 2 - Pass Details

Date: 10 August 2021
Orbit: 553 x 2937 km, 32.9° (Epoch: 24 September)

Event Time Altitude Azimuth Distance (km) Brightness Sun altitude
Rises 22:28:36 0° 244° (WSW) 5,715 12.1 -59.1°
Enters shadow 22:31:59 - 246° (WSW) 4,669 11.6 -59.7°
Reaches altitude 10° 22:33:03 10° 247° (WSW) 4,328 - -59.8°
Maximum altitude 22:43:39 58° 324° (NW) 1,460 - -61.4°
Drops below altitude 10° 22:49:54 10° 43° (NE) 2,621 - -62.2°
Sets 22:52:01 0° 48° (NE) 3,354 - -62.5°
